Regional Weather Roundup
Issued by NWS Jackson, KY

Home | Current Version | Previous Version | Text Only | Print | Product List | Glossary Off
Versions: 1 2 3 4 5 6 7 8 9 10 11 12 13 14 15 16 17 18 19 20 21 22 23 24 25 26 27 28 29 30 31 32 33 34 35 36 37 38 39 40 41 42 43 44 45 46 47 48 49 50

000
ASUS43 KJKL 300105
RWRJKL

EAST KENTUCKY HOURLY WEATHER ROUNDUP
NATIONAL WEATHER SERVICE JACKSON KY
900 PM EDT TUE JUL 29 2014

NOTE: "FAIR" INDICATES FEW OR NO CLOUDS BELOW 12,000 FEET WITH
NO SIGNIFICANT WEATHER AND/OR OBSTRUCTIONS TO VISIBILITY.

* THESE REPORTS ARE NOT UNDER NWS QUALITY CONTROL AND MAY NOT
  REPORT WEATHER SUCH AS PRECIPITATION AND FOG.

KYZ079-080-083-085-087-088-110-112-115-119-120-300200
...EASTERN KENTUCKY...

CITY           SKY/WX    TMP DP  RH WIND       PRES   REMARKS
JACKSON        CLEAR     63  53  70 NW3       30.08S
LONDON         CLEAR     67  52  58 N3        30.09S
SOMERSET*      CLEAR     64  52  63 CALM      30.09S
MONTICELLO*    CLEAR     62  58  87 CALM      30.10S
MIDDLESBORO*   MOCLDY    64  57  77 CALM      30.09S
HARLAN APT*    CLOUDY    61  54  77 MISG      30.10R
PIKEVILLE APT* CLEAR     63  54  72 NW6       30.09R
BIG SANDY*     CLEAR     62  57  83 CALM      30.08R
MOREHEAD APT*    N/A     63  57  82 CALM      30.09S
$$

KYZ035-036-041-042-044-050-067-078-099-300200
...CENTRAL KENTUCKY...

CITY           SKY/WX    TMP DP  RH WIND       PRES   REMARKS
MT STERLING*   CLEAR     63  55  77 CALM      30.09S
FLEMING/MASON* CLEAR     65  53  64 CALM      30.08R
DANVILLE*      CLEAR     63  55  77 CALM      30.09S
RICHMOND*      CLEAR     66  54  63 CALM      30.08R
LEXINGTON      CLEAR     68  54  60 CALM      30.08R
FRANKFORT      CLEAR     65  58  78 CALM      30.06S
$$

KYZ091>093-OHZ055-061-077-WVZ005-015-034-035-042-300200
...SOUTHERN OHIO/WEST VIRGINIA...

CITY           SKY/WX    TMP DP  RH WIND       PRES   REMARKS
COVINGTON      PTCLDY    68  53  58 SW3       30.06R
COLUMBUS       PTCLDY    67  52  58 W5        30.03R
DAYTON         MOCLDY    68  56  65 SW7       30.05R
WILMINGTON     PTCLDY    62  55  77 SW3       30.05S
HUNTINGTON     PTCLDY    64  55  72 CALM      30.06R
CHARLESTON     PTCLDY    64  57  78 W3        30.05S
PINEVILLE*     PTCLDY    60  58  96 MISG      30.13R
BECKLEY        MOCLDY    60  53  77 N7        30.10R
BLUEFIELD      CLEAR     60  48  64 NW6       30.11R
$$

VAZ002-007-008-TNZ017-027-036-066-071-300200
...SOUTHWEST VIRGINIA/EAST TENNESSEE...

CITY           SKY/WX    TMP DP  RH WIND       PRES   REMARKS
WISE*          CLEAR     59  46  63 CALM      30.12S
JONESVILLE*      N/A     63  54  72 CALM      30.11R
ABINGDON*      CLEAR     65  50  59 N3        30.09R
BRISTOL        PTCLDY    65  50  58 N5        30.07R
KNOXVILLE      PTCLDY    68  51  54 N7        30.06R
OAK RIDGE      CLEAR     69  52  54 CALM      30.09R
CROSSVILLE     CLEAR     66  53  63 CALM      30.11S
NASHVILLE      CLEAR     73  52  47 N6        30.07R
$$

...KEY TO REMARKS...
VSB - VISIBILITY IN MILES
WCI - WIND CHILL INDEX
HX  - HEAT INDEX

$$



USA.gov is the U.S. government's official web portal to all federal, state and local government web resources and services.